Find Starlink 38145

NORAD ID: 100528 Int'l Des: 2026-197 Owner: SPXS Country: US Constellation: starlink operational

Current View

Loading 3D Globe...

About Starlink 38145

Starlink 38145 (NORAD 100528) is a starlink constellation satellite launched Aug 26, 2026 by SPXS of US. with a mass of 575.00 kg.

Upcoming Passes

Passes for default location (London). Set your location on the main map for personalized predictions.

Altitude History

Loading altitude history...

Two-Line Element Set

1 A0528U 26197AC 26263.69238792 .00157595 00000-0 92750-3 0 9993
2 A0528 69.9990 121.3592 0003800 280.5550 79.5222 15.77599179 4010
Epoch: Sep 20, 2026 • Age: 16 hours

Current Status

Altitude 348.4 km
Apogee / Perigee N/A
Velocity 7.70 km/s
Sub-Earth Point -35.77°S, 177.02°W
Launch Date Aug 26, 2026
Age 25 days
Type internet

Technical Details

Classification Payload
Mass 575.00 kg
Dry Mass 530.00 kg
Length 0.30 m
Span 29.00 m
Shape ? Box + pan
Manufacturer SPXS
Bus Type Starlink V2MO
Phase Status In Orbit
Owner/State SPXS/US

Most Searched